Location: Bishausen
(51.6334°N, 9.9631°E)
Time: 14:44:35
(UTC+00:00)

Cosmos 1954 Rocket - Pass Details

Date: 23 May 2024
Orbit: 750 x 779 km, 74.0° (Epoch: 12 June)

Event Time Altitude Azimuth Distance (km) Brightness Sun altitude
Exits shadow 00:48:44 23° 213° (SSW) 1,614 5.1 -15.0°
Maximum altitude 00:52:07 76° 296° (WNW) 807 4.1 -14.8°
Drops below altitude 10° 00:57:27 10° 23° (NNE) 2,340 8.0 -14.4°
Sets 00:59:51 0° 25° (NNE) 3,270 9.3 -14.3°
